Weather History for Cape Romanzoff, AK

Change the Weather History Date:

Saturday, January 19, 2013

  Actual Average Record
Temperature  
Mean Temperature 11 °F -  
Max Temperature 27 °F 20 °F 35 °F (2001)
Min Temperature -4 °F 6 °F -18 °F (2004)
Degree Days  
Heating Degree Days 54    
Moisture  
Dew Point 7 °F    
Average Humidity 84    
Maximum Humidity 100    
Minimum Humidity 66    
Precipitation  
Precipitation 0.00 in - - ()
Sea Level Pressure  
Sea Level Pressure 29.64 in    
Wind  
Wind Speed 36 mph (East)    
Max Wind Speed 51 mph    
Max Gust Speed 59 mph    
Visibility 2 miles    
Events Rain , Snow    
Averages and records for this station are not official NWS values.
T = Trace of Precipitation, MM = Missing Value Source: NWS Daily Summary

Daily Weather History Graph

Daily Weather History Graph

Search for Another Location

Airport:

Trip Planner

Search our weather history database for the weather conditions in past years. The results will help you decide how hot, cold, wet, or windy it might be!

Date:

Astronomy

Jan. 19, 2013 Rise Set
Actual Time 10:57 AM AKST 5:33 PM AKST
Civil Twilight 10:01 AM AKST 6:29 PM AKST
Nautical Twilight 9:05 AM AKST 7:25 PM AKST
Astronomical Twilight 8:12 AM AKST 8:18 PM AKST
Moon 12:27 PM AKST (1/19) 4:18 AM AKST (1/19)
Length of Visible Light 8h 27m
Length of Day
6h 35m
First Quarter, 58% of the Moon is Illuminated
Jan 19
First Quarter
Jan 26
Full
Feb 3
Last Quarter
Feb 9
New
Feb 17
First Quarter

Hourly Weather History & Observations

Time (AKST) Temp. Windchill Dew Point Humidity Pressure Visibility Wind Dir Wind Speed Gust Speed Precip Events Conditions
12:05 AM -4.0 °F -34.4 °F -9.4 °F 78% 30.08 in 1.8 mi ENE 40.3 mph 52.9 mph N/A   Partly Cloudy
12:20 AM -4.0 °F -33.8 °F -9.4 °F 78% 30.08 in 2.0 mi ENE 38.0 mph 49.5 mph N/A Snow Light Snow Showers
12:35 AM -4.0 °F -33.4 °F -9.4 °F 78% 30.07 in 1.2 mi ENE 36.8 mph 49.5 mph N/A Snow Light Snow Showers
12:55 AM -3.3 °F -32.4 °F -9.0 °F 76% 30.06 in 1.8 mi ENE 36.8 mph 49.5 mph N/A   Scattered Clouds
1:05 AM -2.2 °F -30.9 °F -9.4 °F 71% 30.06 in 2.0 mi ENE 36.8 mph 47.2 mph N/A   Partly Cloudy
1:20 AM -2.2 °F -31.9 °F -9.4 °F 71% 30.05 in 3.0 mi ENE 40.3 mph 47.2 mph N/A   Clear
1:55 AM -2.4 °F -32.4 °F -9.2 °F 73% 30.02 in 5.0 mi ENE 41.4 mph 50.6 mph N/A   Clear
2:05 AM -2.2 °F -31.3 °F -9.4 °F 71% 30.03 in 7.0 mi ENE 38.0 mph 49.5 mph N/A Snow Light Snow Showers
2:20 AM -2.2 °F -31.9 °F -9.4 °F 71% 30.02 in 10.0 mi East 40.3 mph 47.2 mph N/A   Partly Cloudy
2:55 AM -2.2 °F -32.2 °F -9.4 °F 71% 29.99 in 9.0 mi ENE 41.4 mph 51.8 mph N/A   Clear
3:20 AM -2.2 °F -32.2 °F -9.4 °F 71% 29.99 in 5.0 mi ENE 41.4 mph 47.2 mph N/A Snow Light Snow Showers
3:35 AM -2.2 °F -31.6 °F -9.4 °F 71% 29.97 in 9.0 mi ENE 39.1 mph 49.5 mph N/A   Clear
3:55 AM -1.8 °F -31.1 °F -9.0 °F 71% 29.96 in 5.0 mi ENE 39.1 mph 49.5 mph N/A Snow Light Snow
4:05 AM -0.4 °F -30.0 °F -9.4 °F 66% 29.96 in 10.0 mi ENE 42.6 mph 58.7 mph N/A   Partly Cloudy
4:55 AM 0.1 °F -31.0 °F -8.9 °F 66% 29.89 in 10.0 mi East 50.6 mph 55.2 mph N/A   Partly Cloudy
5:55 AM -0.6 °F -31.0 °F -8.9 °F 68% 29.87 in 10.0 mi East 46.0 mph 55.2 mph N/A   Mostly Cloudy
6:55 AM 0.5 °F -27.8 °F -8.1 °F 67% 29.86 in 10.0 mi East 39.1 mph 50.6 mph N/A   Overcast
7:55 AM 1.8 °F -20.5 °F -6.9 °F 67% 29.89 in 10.0 mi ESE 21.9 mph 39.1 mph N/A   Overcast
8:55 AM 2.1 °F -26.2 °F -6.0 °F 69% 29.81 in 10.0 mi East 41.4 mph 54.1 mph N/A   Overcast
9:20 AM 3.2 °F -15.3 °F -4.0 °F 72% 29.85 in 10.0 mi East 15.0 mph 34.5 mph N/A Snow Light Snow
9:55 AM 3.4 °F -21.2 °F -3.1 °F 74% 29.79 in 3.0 mi East 29.9 mph 43.7 mph N/A Snow Light Snow Showers
10:05 AM 3.2 °F -19.5 °F -2.2 °F 78% 29.80 in 2.0 mi East 24.2 mph 38.0 mph N/A Snow Light Snow Showers
10:20 AM 3.2 °F -22.5 °F -2.2 °F 78% 29.78 in 4.0 mi East 33.4 mph 40.3 mph N/A Snow Light Snow Showers
10:35 AM 5.0 °F -20.7 °F -0.4 °F 78% 29.75 in 1.8 mi East 35.7 mph 42.6 mph N/A Snow Light Snow Showers
10:50 AM 6.8 °F -13.4 °F 3.2 °F 85% 29.77 in 0.5 mi ESE 20.7 mph 42.6 mph N/A Snow Light Snow
10:55 AM 6.8 °F -11.8 °F 5.0 °F 92% 29.71 in 0.5 mi ESE 17.3 mph 39.1 mph N/A Snow Light Snow
11:20 AM 6.8 °F -19.6 °F 1.4 °F 79% 29.73 in 0.5 mi ESE 41.4 mph 50.6 mph N/A Snow Light Snow
11:35 AM 5.0 °F -22.4 °F 1.4 °F 85% 29.73 in 0.8 mi ESE 42.6 mph 51.8 mph N/A Snow Light Snow
11:55 AM 5.4 °F -21.1 °F 0.7 °F 81% 29.73 in 0.5 mi East 39.1 mph 48.3 mph N/A Snow Light Snow
12:05 PM 6.8 °F -18.2 °F 1.4 °F 79% 29.73 in 1.0 mi East 35.7 mph 47.2 mph N/A Snow Light Snow
12:20 PM 6.8 °F -16.9 °F 5.0 °F 92% 29.70 in 1.2 mi East 31.1 mph 48.3 mph N/A Snow Light Snow
12:35 PM 8.6 °F -14.5 °F 6.8 °F 92% 29.70 in 0.2 mi East 31.1 mph 38.0 mph N/A Snow Light Snow
12:50 PM 6.8 °F -18.5 °F 3.2 °F 85% 29.68 in 0.5 mi East 36.8 mph 42.6 mph N/A Snow Light Snow
12:55 PM 7.5 °F -17.5 °F 3.9 °F 85% 29.68 in 0.5 mi East 36.8 mph 42.6 mph N/A Snow Light Snow
1:05 PM 6.8 °F -18.5 °F 3.2 °F 85% 29.68 in 0.2 mi East 36.8 mph 43.7 mph N/A Snow Snow
1:20 PM 10.4 °F -13.5 °F 5.0 °F 79% 29.67 in 0.5 mi East 36.8 mph 41.4 mph N/A Snow Light Snow
1:35 PM 10.4 °F -6.0 °F 8.6 °F 92% 29.69 in 0.5 mi SE 15.0 mph 40.3 mph N/A Snow Light Snow
1:50 PM 14.0 °F -4.3 °F 8.6 °F 79% 29.66 in 0.8 mi East 21.9 mph 29.9 mph N/A Snow Light Snow
1:55 PM 13.8 °F -2.7 °F 11.1 °F 89% 29.65 in 0.8 mi ESE 17.3 mph 28.8 mph N/A Snow Light Snow
2:05 PM 14.0 °F 3.9 °F 12.2 °F 93% 29.64 in 2.5 mi Variable 6.9 mph - N/A Snow Light Snow
2:20 PM 14.0 °F -7.1 °F 6.8 °F 73% 29.59 in 0.5 mi ENE 31.1 mph 38.0 mph N/A Snow Light Snow
2:35 PM 12.2 °F -9.9 °F 10.4 °F 92% 29.60 in 0.2 mi East 32.2 mph 40.3 mph N/A Snow Light Snow
2:50 PM 10.4 °F -16.0 °F 5.0 °F 79% 29.54 in 0.5 mi East 48.3 mph 54.1 mph N/A Snow Light Snow
2:55 PM 8.8 °F -17.6 °F 4.8 °F 84% 29.56 in 0.5 mi East 44.9 mph 54.1 mph N/A Snow Light Snow
3:05 PM 10.4 °F -14.3 °F 6.8 °F 85% 29.56 in 0.2 mi East 40.3 mph 52.9 mph N/A Snow Snow
3:20 PM 12.2 °F -9.6 °F 8.6 °F 85% 29.57 in 0.2 mi ESE 31.1 mph 50.6 mph N/A Snow Snow
3:35 PM 14.0 °F -7.1 °F 12.2 °F 93% 29.57 in 0.5 mi East 31.1 mph 46.0 mph N/A Snow Light Snow
3:50 PM 19.4 °F 7.9 °F 17.6 °F 93% 29.56 in 0.8 mi SE 10.4 mph 31.1 mph N/A Snow Light Snow
3:55 PM 21.6 °F 5.7 °F 17.4 °F 84% 29.54 in 1.0 mi East 21.9 mph 32.2 mph N/A Snow Light Snow
4:05 PM 19.4 °F -0.0 °F 14.0 °F 80% 29.52 in 1.0 mi East 32.2 mph 40.3 mph N/A Snow Light Snow
4:35 PM 15.8 °F -6.3 °F 14.0 °F 93% 29.49 in 0.5 mi East 38.0 mph 48.3 mph N/A Snow Light Snow
4:50 PM 15.8 °F -6.8 °F 12.2 °F 86% 29.46 in 1.0 mi East 40.3 mph 50.6 mph N/A Snow Light Snow
4:55 PM 16.9 °F -3.8 °F 13.8 °F 88% 29.49 in 1.2 mi East 33.4 mph 50.6 mph N/A Snow Light Snow
5:05 PM 19.4 °F -0.8 °F 15.8 °F 86% 29.47 in 0.8 mi East 35.7 mph 48.3 mph N/A Snow Light Snow
5:20 PM 17.6 °F -5.2 °F 14.0 °F 86% 29.44 in 0.2 mi East 44.9 mph 52.9 mph N/A Snow Snow
5:50 PM 19.4 °F -1.6 °F 14.0 °F 80% 29.44 in 0.8 mi East 39.1 mph 50.6 mph N/A Snow Light Snow
5:55 PM 18.7 °F -2.8 °F 15.3 °F 87% 29.42 in 1.0 mi East 40.3 mph 50.6 mph N/A Snow Light Snow
6:05 PM 19.4 °F -1.1 °F 14.0 °F 80% 29.42 in 0.5 mi ENE 36.8 mph 51.8 mph N/A   Light Ice Pellets
6:20 PM 21.2 °F 0.7 °F 19.4 °F 93% 29.41 in 1.2 mi East 40.3 mph 47.2 mph N/A Snow Light Snow
6:35 PM 21.2 °F 1.4 °F 17.6 °F 86% 29.44 in 1.5 mi East 36.8 mph 48.3 mph N/A Rain Light Freezing Rain
6:50 PM 17.6 °F -2.8 °F 15.8 °F 93% 29.43 in 0.2 mi East 33.4 mph 43.7 mph N/A   Light Ice Pellets
6:55 PM 18.3 °F -1.8 °F 17.2 °F 96% 29.44 in 0.2 mi ENE 33.4 mph 42.6 mph N/A Snow Heavy Snow
7:05 PM 17.6 °F -3.1 °F 15.8 °F 93% 29.43 in 0.2 mi ENE 34.5 mph 41.4 mph N/A Snow Heavy Snow
7:20 PM 17.6 °F -2.8 °F 17.6 °F 100% 29.41 in 0.2 mi ENE 33.4 mph 39.1 mph N/A Snow Heavy Snow
7:35 PM 19.4 °F -0.3 °F 19.4 °F 100% 29.42 in 0.2 mi East 33.4 mph 41.4 mph N/A Snow Heavy Snow
7:50 PM 23.0 °F 4.4 °F 19.4 °F 86% 29.40 in 0.2 mi East 34.5 mph 42.6 mph N/A Snow Heavy Snow
7:55 PM 22.5 °F 3.9 °F 20.8 °F 93% 29.40 in 0.2 mi East 33.4 mph 42.6 mph N/A Snow Heavy Snow
8:05 PM 23.0 °F 4.4 °F 19.4 °F 86% 29.39 in 0.2 mi East 34.5 mph 42.6 mph N/A Snow Heavy Snow
8:20 PM 21.2 °F 1.4 °F 19.4 °F 93% 29.37 in 0.2 mi East 36.8 mph 44.9 mph N/A Snow Heavy Snow
8:50 PM 24.8 °F 7.3 °F 21.2 °F 86% 29.38 in 0.2 mi East 32.2 mph 42.6 mph N/A Snow Snow
8:55 PM 23.9 °F 5.4 °F 21.6 °F 91% 29.37 in 0.2 mi East 35.7 mph 42.6 mph N/A Snow Snow
9:05 PM 24.8 °F 6.0 °F 23.0 °F 93% 29.37 in 0.2 mi East 39.1 mph 48.3 mph N/A Snow Snow
9:36 PM 24.8 °F 6.2 °F 24.8 °F 100% 29.35 in 0.2 mi East 38.0 mph 47.2 mph N/A Snow Heavy Snow
9:51 PM 24.8 °F 6.2 °F 23.0 °F 93% 29.34 in 0.2 mi East 38.0 mph 48.3 mph N/A Snow Heavy Snow
9:55 PM 25.3 °F 6.7 °F 23.7 °F 94% 29.34 in 0.2 mi East 39.1 mph 48.3 mph N/A Snow Heavy Snow
10:21 PM 24.8 °F 5.5 °F 23.0 °F 93% 29.34 in 0.2 mi ESE 41.4 mph 49.5 mph N/A Snow Heavy Snow
10:36 PM 24.8 °F 5.5 °F 23.0 °F 93% 29.34 in 0.2 mi ESE 41.4 mph 49.5 mph N/A Snow Heavy Snow
10:55 PM 25.5 °F 6.7 °F 23.5 °F 92% 29.33 in 0.2 mi East 40.3 mph 49.5 mph N/A Snow Heavy Snow
11:06 PM 26.6 °F 9.1 °F 24.8 °F 93% 29.34 in 0.2 mi East 35.7 mph 49.5 mph N/A Snow Heavy Snow
11:36 PM 26.6 °F 9.1 °F 23.0 °F 86% 29.34 in 0.2 mi East 35.7 mph 44.9 mph N/A Snow Heavy Snow
11:55 PM 25.3 °F 8.6 °F 24.1 °F 95% 29.35 in 0.2 mi East 29.9 mph 44.9 mph N/A Snow Heavy Snow